Starlink 33620

operational
NORAD ID: 63069 Int'l Des: 2025-035 Owner: SPXS Country: US Constellation: starlink
LEOCIRCULAR

关于 Starlink 33620

正在加载描述...

实时位置

正在加载3D地球...

即将过境

高度历史

Altitude vs Time

uPlot chart will show altitude changes over time

两行轨道根数

1 63069U 25035T 25258.15687750 .00042600 00000-0 15474-2 0 9995
2 63069 43.0018 58.4484 0001688 267.8135 92.2524 15.27606437 32875
Epoch: Sep 15, 2025 • Age: 14 hours

当前状态

高度 486.7 km
速度 7.63 km/s
星下点 41.59°N, 142.02°W
发射日期 Feb 21, 2025
运行时间 0.5 years
类型 internet

技术详情

分类 Payload
质量 575.00 kg
干质量 530.00 kg
总质量 575.00 kg
长度 0.30 m
直径 4.10 m
跨度 29.00 m
形状 Box + pan
制造商 SPXS
平台类型 Starlink V2MO
阶段状态 In Orbit
所有者/国家 SPXS/US

大型星座

Loading constellations...